Simultaneous Nadir Overpasses (SNOs) Predictions

Prediction of SNOs between METOP-B and TERRA Satellite Orbit:

Table of predicted SNOs for the next 14.0 days since TLE Epoch: 12/2/2023
Index Date (METOP-B) Time (METOP-B) Lat,Lon (METOP-B) SZA (METOP-B ) Date (TERRA) Time (TERRA) Lat,Lon (TERRA) SZA (TERRA ) Distance(km) Time Diff (sec)
1 12/02/2023 01:09:49 80.58,-169.71 103.66 12/02/2023 01:10:00 80.59,-169.64 103.67 1.23 11
2 12/02/2023 02:00:26 -80.67, -1.06 76.16 12/02/2023 01:59:19 -80.68, -1.03 76.18 0.80 67
3 12/04/2023 16:30:43 -80.59, 140.17 75.98 12/04/2023 16:30:54 -80.59, 140.13 75.98 0.73 11
4 12/04/2023 17:21:20 80.67, -51.32 104.19 12/04/2023 17:20:13 80.67, -51.38 104.16 1.18 67
5 12/07/2023 07:51:37 80.58, 89.77 104.30 12/07/2023 07:51:47 80.58, 89.76 104.30 0.24 10
6 12/07/2023 08:42:14 -80.67,-101.56 75.51 12/07/2023 08:41:06 -80.67,-101.66 75.55 1.81 68
7 12/09/2023 23:12:30 -80.57, 39.43 75.47 12/09/2023 23:12:38 -80.57, 39.46 75.46 0.56 8
8 12/10/2023 00:03:07 80.65,-152.10 104.70 12/10/2023 00:01:57 80.65,-152.05 104.68 0.87 70
9 12/12/2023 14:33:22 80.59, -10.58 104.77 12/12/2023 14:33:28 80.59, -10.64 104.76 1.05 6
10 12/12/2023 15:24:01 -80.64, 157.44 75.14 12/12/2023 15:22:48 -80.64, 157.60 75.14 3.02 73
11 12/15/2023 05:54:16 -80.56, -61.14 75.14 12/15/2023 05:54:18 -80.57, -61.01 75.12 2.63 2



Historial Predications of SNOs between METOP-B and TERRA
